Location: Seven Kings
(51.5667°N, 0.1000°E)
Time: 12:09:05
(UTC+00:00)

CSL-04 Rocket - Pass Details

Date: 29 October 2020
Orbit: 805 x 861 km, 98.9° (Epoch: 24 November)

Event Time Altitude Azimuth Distance (km) Brightness Sun altitude
Rises 18:34:49 0° 157° (SSE) 3,424 6.6 -18.7°
Reaches altitude 10° 18:37:11 10° 156° (SSE) 2,489 5.9 -19.1°
Maximum altitude 18:42:43 77° 71° (ENE) 882 3.6 -20.0°
Drops below altitude 10° 18:48:13 10° 347° (NNW) 2,479 6.3 -20.8°
Sets 18:50:35 0° 346° (NNW) 3,411 7.1 -21.2°
